Time,TemperatureF,DewpointF,PressureIn,WindDirection,WindDirectionDegrees,WindSpeedMPH,WindSpeedGustMPH,Humidity,HourlyPrecipIn,Conditions,Clouds,dailyrainin,SoftwareType,DateUTC
2013-04-09 00:03:00,47.5,47.5,29.97,SW,225,0.0,0.0,100,0.00,,,0.00,WSDL version 423,2013-04-09 04:03:00,
2013-04-09 00:13:00,47.5,47.5,29.98,SW,225,0.0,0.0,100,0.00,,,0.00,WSDL version 423,2013-04-09 04:13:00,
2013-04-09 00:23:00,47.7,47.7,29.97,SW,225,0.0,2.7,100,0.00,,,0.00,WSDL version 423,2013-04-09 04:23:00,
2013-04-09 00:33:00,48.1,48.1,29.97,SW,225,0.0,0.0,100,0.00,,,0.00,WSDL version 423,2013-04-09 04:33:00,
2013-04-09 00:43:00,48.5,48.5,29.97,South,188,0.0,2.7,100,0.00,,,0.00,WSDL version 423,2013-04-09 04:43:00,
2013-04-09 00:53:00,48.9,48.9,29.96,SE,135,0.0,2.7,100,0.00,,,0.00,WSDL version 423,2013-04-09 04:53:00,
2013-04-09 01:03:00,48.9,48.9,29.96,SSE,158,0.0,0.0,100,0.00,,,0.00,WSDL version 423,2013-04-09 05:03:00,
2013-04-09 01:13:00,49.1,49.1,29.96,SSW,212,0.0,4.0,100,0.00,,,0.00,WSDL version 423,2013-04-09 05:13:00,
2013-04-09 01:23:00,49.1,49.1,29.95,SW,225,0.0,3.1,100,0.00,,,0.00,WSDL version 423,2013-04-09 05:23:00,
2013-04-09 01:33:00,48.9,48.9,29.95,SW,225,1.3,4.0,100,0.00,,,0.00,WSDL version 423,2013-04-09 05:33:00,
2013-04-09 01:43:00,48.7,48.7,29.94,SW,225,1.1,3.1,100,0.00,,,0.00,WSDL version 423,2013-04-09 05:43:00,
2013-04-09 01:53:00,48.7,48.7,29.94,SW,225,0.0,3.1,100,0.00,,,0.00,WSDL version 423,2013-04-09 05:53:00,
2013-04-09 02:03:00,48.6,48.6,29.93,SW,225,0.0,3.1,100,0.00,,,0.00,WSDL version 423,2013-04-09 06:03:00,
2013-04-09 02:13:00,48.4,48.4,29.92,SW,225,0.0,2.7,100,0.00,,,0.00,WSDL version 423,2013-04-09 06:13:00,
2013-04-09 02:23:00,48.2,48.2,29.92,SW,225,0.7,3.1,100,0.00,,,0.00,WSDL version 423,2013-04-09 06:23:00,
2013-04-09 02:33:00,48.2,48.2,29.91,SW,225,0.0,3.6,100,0.00,,,0.00,WSDL version 423,2013-04-09 06:33:00,
2013-04-09 02:43:00,48.2,48.2,29.91,SW,225,0.0,3.6,100,0.00,,,0.00,WSDL version 423,2013-04-09 06:43:00,
2013-04-09 02:53:00,48.2,48.2,29.90,SSW,203,1.5,5.4,100,0.00,,,0.00,WSDL version 423,2013-04-09 06:53:00,
2013-04-09 03:03:00,48.1,48.1,29.90,SW,225,1.6,4.0,100,0.00,,,0.00,WSDL version 423,2013-04-09 07:03:00,
2013-04-09 03:13:00,47.9,47.9,29.89,SSW,203,2.4,4.0,100,0.00,,,0.00,WSDL version 423,2013-04-09 07:13:00,
2013-04-09 03:23:00,47.8,47.8,29.89,SSW,203,0.0,2.7,100,0.00,,,0.00,WSDL version 423,2013-04-09 07:23:00,
2013-04-09 03:33:00,47.7,47.7,29.88,SSW,203,0.0,0.0,100,0.00,,,0.00,WSDL version 423,2013-04-09 07:33:00,
2013-04-09 03:43:00,47.7,47.7,29.87,SSW,203,0.0,0.0,100,0.00,,,0.00,WSDL version 423,2013-04-09 07:43:00,
2013-04-09 03:53:00,47.7,47.7,29.87,SSW,203,0.0,3.1,100,0.00,,,0.00,WSDL version 423,2013-04-09 07:53:00,
2013-04-09 04:03:00,47.5,47.5,29.86,SW,225,0.0,3.6,100,0.00,,,0.00,WSDL version 423,2013-04-09 08:03:00,
2013-04-09 04:13:00,47.1,47.1,29.85,SW,225,0.0,0.0,100,0.00,,,0.00,WSDL version 423,2013-04-09 08:13:00,
2013-04-09 04:23:00,46.8,46.8,29.84,SW,225,0.0,0.0,100,0.00,,,0.00,WSDL version 423,2013-04-09 08:23:00,
2013-04-09 04:33:00,46.6,46.6,29.84,SW,225,0.0,0.0,100,0.00,,,0.00,WSDL version 423,2013-04-09 08:33:00,
2013-04-09 04:43:00,46.6,46.6,29.83,SW,225,0.0,2.7,100,0.00,,,0.00,WSDL version 423,2013-04-09 08:43:00,
2013-04-09 04:53:00,46.7,46.7,29.83,SW,225,0.0,0.0,100,0.00,,,0.00,WSDL version 423,2013-04-09 08:53:00,
2013-04-09 05:03:00,47.0,47.0,29.85,SW,225,0.0,3.6,100,0.00,,,0.00,WSDL version 423,2013-04-09 09:03:00,
2013-04-09 05:13:00,47.1,47.1,29.88,SW,225,0.0,0.0,100,0.00,,,0.00,WSDL version 423,2013-04-09 09:13:00,
2013-04-09 05:23:00,47.1,47.1,29.87,SW,225,0.0,0.0,100,0.00,,,0.00,WSDL version 423,2013-04-09 09:23:00,
2013-04-09 05:33:00,46.2,46.2,29.87,SW,225,0.0,0.0,100,0.00,,,0.00,WSDL version 423,2013-04-09 09:33:00,
2013-04-09 05:43:00,45.4,45.4,29.85,SW,225,0.0,0.0,100,0.00,,,0.00,WSDL version 423,2013-04-09 09:43:00,
2013-04-09 05:53:00,44.8,44.8,29.83,SW,225,0.0,0.0,100,0.04,,,0.04,WSDL version 423,2013-04-09 09:53:00,
2013-04-09 06:03:00,44.5,44.5,29.82,SW,225,0.0,0.0,100,0.04,,,0.04,WSDL version 423,2013-04-09 10:03:00,
2013-04-09 06:13:00,44.6,44.6,29.83,SW,225,0.0,0.0,100,0.04,,,0.04,WSDL version 423,2013-04-09 10:13:00,
2013-04-09 06:23:00,44.6,44.6,29.83,SW,225,0.0,0.0,100,0.04,,,0.04,WSDL version 423,2013-04-09 10:23:00,
2013-04-09 06:33:00,44.6,44.6,29.82,SW,225,0.0,0.0,100,0.04,,,0.04,WSDL version 423,2013-04-09 10:33:00,
2013-04-09 06:43:00,44.7,44.7,29.82,SW,225,0.0,0.0,100,0.04,,,0.04,WSDL version 423,2013-04-09 10:43:00,
2013-04-09 06:53:00,44.8,44.8,29.82,SW,225,0.0,0.0,100,0.00,,,0.04,WSDL version 423,2013-04-09 10:53:00,
2013-04-09 07:03:00,45.1,45.1,29.82,SW,225,0.0,0.0,100,0.00,,,0.04,WSDL version 423,2013-04-09 11:03:00,
2013-04-09 07:13:00,45.5,45.5,29.82,SW,225,0.0,0.0,100,0.00,,,0.04,WSDL version 423,2013-04-09 11:13:00,
2013-04-09 07:23:00,45.8,45.8,29.81,SW,225,0.0,0.0,100,0.00,,,0.04,WSDL version 423,2013-04-09 11:23:00,
2013-04-09 07:33:00,46.3,46.3,29.82,SW,225,0.0,0.0,100,0.00,,,0.04,WSDL version 423,2013-04-09 11:33:00,
2013-04-09 07:43:00,46.7,46.7,29.81,SW,225,0.0,0.0,100,0.00,,,0.04,WSDL version 423,2013-04-09 11:43:00,
2013-04-09 07:53:00,47.1,47.1,29.80,SW,225,0.0,0.0,100,0.00,,,0.04,WSDL version 423,2013-04-09 11:53:00,
2013-04-09 08:03:00,47.4,47.4,29.80,SW,225,0.0,0.0,100,0.00,,,0.04,WSDL version 423,2013-04-09 12:03:00,
2013-04-09 08:13:00,47.9,47.9,29.80,SW,225,0.0,0.0,100,0.00,,,0.04,WSDL version 423,2013-04-09 12:13:00,
2013-04-09 08:23:00,48.4,48.4,29.80,SW,225,0.0,0.0,100,0.00,,,0.04,WSDL version 423,2013-04-09 12:23:00,
2013-04-09 08:33:00,48.7,48.7,29.80,SW,225,0.0,0.0,100,0.00,,,0.04,WSDL version 423,2013-04-09 12:33:00,
2013-04-09 08:43:00,48.8,48.8,29.79,SW,225,0.0,0.0,100,0.00,,,0.04,WSDL version 423,2013-04-09 12:43:00,
2013-04-09 08:53:00,49.1,49.1,29.79,SW,225,0.0,0.0,100,0.00,,,0.04,WSDL version 423,2013-04-09 12:53:00,
2013-04-09 09:03:00,49.3,49.3,29.79,NW,315,0.0,0.0,100,0.00,,,0.04,WSDL version 423,2013-04-09 13:03:00,
2013-04-09 09:13:00,49.9,49.9,29.78,NW,315,0.0,0.0,100,0.00,,,0.04,WSDL version 423,2013-04-09 13:13:00,
2013-04-09 09:23:00,50.4,50.4,29.78,NW,315,0.0,0.0,100,0.00,,,0.04,WSDL version 423,2013-04-09 13:23:00,
2013-04-09 09:33:00,51.7,51.7,29.77,NW,315,0.0,0.0,100,0.00,,,0.04,WSDL version 423,2013-04-09 13:33:00,
2013-04-09 09:43:00,52.5,52.5,29.77,West,270,0.0,3.1,100,0.00,,,0.04,WSDL version 423,2013-04-09 13:43:00,
2013-04-09 09:53:00,52.5,52.5,29.77,West,270,0.0,0.0,100,0.00,,,0.04,WSDL version 423,2013-04-09 13:53:00,
2013-04-09 10:03:00,53.2,53.2,29.77,West,270,0.0,2.2,100,0.00,,,0.04,WSDL version 423,2013-04-09 14:03:00,
2013-04-09 10:13:00,53.0,53.0,29.78,WNW,293,0.0,4.0,100,0.00,,,0.04,WSDL version 423,2013-04-09 14:13:00,
2013-04-09 10:23:00,53.0,53.0,29.79,WNW,293,0.0,2.7,100,0.00,,,0.04,WSDL version 423,2013-04-09 14:23:00,
2013-04-09 10:33:00,54.8,54.8,29.78,West,270,0.0,3.6,100,0.00,,,0.04,WSDL version 423,2013-04-09 14:33:00,
2013-04-09 10:43:00,56.3,56.3,29.79,NNE,14,0.3,4.9,100,0.00,,,0.04,WSDL version 423,2013-04-09 14:43:00,
2013-04-09 10:53:00,58.8,58.8,29.79,WNW,283,2.6,5.4,100,0.00,,,0.04,WSDL version 423,2013-04-09 14:53:00,
2013-04-09 11:03:00,60.9,60.9,29.78,SE,135,1.1,4.0,100,0.00,,,0.04,WSDL version 423,2013-04-09 15:03:00,
2013-04-09 11:13:00,61.9,61.9,29.78,WSW,257,1.3,4.9,100,0.00,,,0.04,WSDL version 423,2013-04-09 15:13:00,
2013-04-09 11:23:00,62.7,62.7,29.77,ENE,64,1.3,4.9,100,0.00,,,0.04,WSDL version 423,2013-04-09 15:23:00,
2013-04-09 11:33:00,64.5,64.5,29.77,NE,45,1.8,4.5,100,0.00,,,0.04,WSDL version 423,2013-04-09 15:33:00,
2013-04-09 11:43:00,66.1,66.1,29.77,ENE,60,3.7,7.6,100,0.00,,,0.04,WSDL version 423,2013-04-09 15:43:00,
2013-04-09 11:53:00,67.7,67.7,29.77,NE,45,1.2,5.4,100,0.00,,,0.04,WSDL version 423,2013-04-09 15:53:00,
2013-04-09 12:03:00,67.7,67.7,29.77,WNW,296,4.8,8.7,100,0.00,,,0.04,WSDL version 423,2013-04-09 16:03:00,
2013-04-09 12:13:00,66.8,66.8,29.77,NW,318,3.4,9.2,100,0.00,,,0.04,WSDL version 423,2013-04-09 16:13:00,
2013-04-09 12:23:00,68.6,68.6,29.76,East,84,0.6,5.4,100,0.00,,,0.04,WSDL version 423,2013-04-09 16:23:00,
2013-04-09 12:33:00,70.5,70.5,29.76,SE,132,2.9,7.2,100,0.00,,,0.04,WSDL version 423,2013-04-09 16:33:00,
2013-04-09 12:43:00,69.5,69.5,29.76,NE,34,2.0,7.6,100,0.00,,,0.04,WSDL version 423,2013-04-09 16:43:00,
2013-04-09 12:53:00,70.9,70.9,29.75,West,270,2.7,8.3,100,0.00,,,0.04,WSDL version 423,2013-04-09 16:53:00,
2013-04-09 13:03:00,70.6,70.6,29.76,NE,35,3.2,7.6,100,0.00,,,0.04,WSDL version 423,2013-04-09 17:03:00,
2013-04-09 13:13:00,71.5,71.5,29.76,WNW,284,4.2,7.6,100,0.00,,,0.04,WSDL version 423,2013-04-09 17:13:00,
2013-04-09 13:23:00,71.6,71.6,29.76,NNE,16,2.9,7.2,100,0.00,,,0.04,WSDL version 423,2013-04-09 17:23:00,
2013-04-09 13:33:00,72.0,72.0,29.77,NE,38,2.4,6.7,100,0.00,,,0.04,WSDL version 423,2013-04-09 17:33:00,
2013-04-09 13:43:00,72.1,72.1,29.77,NNW,335,3.7,8.7,100,0.00,,,0.04,WSDL version 423,2013-04-09 17:43:00,
2013-04-09 13:53:00,71.8,71.8,29.78,South,174,4.1,8.3,100,0.00,,,0.04,WSDL version 423,2013-04-09 17:53:00,
2013-04-09 14:03:00,72.1,72.1,29.77,SE,127,2.6,11.4,100,0.00,,,0.04,WSDL version 423,2013-04-09 18:03:00,
2013-04-09 14:13:00,72.4,72.4,29.77,East,93,2.6,5.8,100,0.00,,,0.04,WSDL version 423,2013-04-09 18:13:00,
2013-04-09 14:23:00,73.3,73.3,29.77,NE,53,3.7,7.2,100,0.00,,,0.04,WSDL version 423,2013-04-09 18:23:00,
2013-04-09 14:33:00,71.7,71.7,29.78,NNW,346,2.9,4.9,100,0.00,,,0.04,WSDL version 423,2013-04-09 18:33:00,
2013-04-09 14:43:00,71.7,71.7,29.78,West,270,2.4,8.3,100,0.00,,,0.04,WSDL version 423,2013-04-09 18:43:00,
2013-04-09 14:53:00,72.2,72.2,29.79,NNE,16,3.5,5.8,100,0.00,,,0.04,WSDL version 423,2013-04-09 18:53:00,
2013-04-09 15:03:00,72.3,72.3,29.79,SSW,212,1.3,8.3,100,0.00,,,0.04,WSDL version 423,2013-04-09 19:03:00,
2013-04-09 15:13:00,72.7,72.7,29.79,North,353,2.8,6.3,100,0.00,,,0.04,WSDL version 423,2013-04-09 19:13:00,
2013-04-09 15:23:00,72.4,72.4,29.79,NE,40,2.0,4.9,100,0.00,,,0.04,WSDL version 423,2013-04-09 19:23:00,
2013-04-09 15:33:00,71.8,71.8,29.79,West,275,3.7,6.3,100,0.00,,,0.04,WSDL version 423,2013-04-09 19:33:00,
2013-04-09 15:43:00,71.9,71.9,29.79,NNW,332,2.3,6.3,100,0.00,,,0.04,WSDL version 423,2013-04-09 19:43:00,
2013-04-09 15:53:00,72.0,72.0,29.79,West,267,1.4,7.6,100,0.00,,,0.04,WSDL version 423,2013-04-09 19:53:00,
2013-04-09 16:03:00,71.8,71.8,29.79,NW,315,2.7,6.7,100,0.00,,,0.04,WSDL version 423,2013-04-09 20:03:00,
2013-04-09 16:13:00,71.2,71.2,29.79,WNW,289,2.6,6.3,100,0.00,,,0.04,WSDL version 423,2013-04-09 20:13:00,
2013-04-09 16:23:00,71.4,71.4,29.80,WSW,248,3.6,12.3,100,0.00,,,0.04,WSDL version 423,2013-04-09 20:23:00,
2013-04-09 16:33:00,71.2,71.2,29.80,WNW,289,1.0,5.8,100,0.00,,,0.04,WSDL version 423,2013-04-09 20:33:00,
2013-04-09 16:43:00,70.4,70.4,29.80,North,360,2.6,6.3,100,0.00,,,0.04,WSDL version 423,2013-04-09 20:43:00,
2013-04-09 16:53:00,69.9,69.9,29.80,WNW,283,1.7,5.4,100,0.00,,,0.04,WSDL version 423,2013-04-09 20:53:00,
2013-04-09 17:03:00,68.6,68.6,29.80,NW,321,0.0,6.3,100,0.00,,,0.04,WSDL version 423,2013-04-09 21:03:00,
2013-04-09 17:13:00,68.7,68.7,29.81,North,3,0.0,5.8,100,0.00,,,0.04,WSDL version 423,2013-04-09 21:13:00,
2013-04-09 17:23:00,68.2,68.2,29.83,SW,217,2.9,5.4,100,0.00,,,0.04,WSDL version 423,2013-04-09 21:23:00,
2013-04-09 17:33:00,68.1,68.1,29.83,NW,321,0.0,5.4,100,0.00,,,0.04,WSDL version 423,2013-04-09 21:33:00,
2013-04-09 17:43:00,68.3,68.3,29.84,ENE,65,2.2,5.4,100,0.00,,,0.04,WSDL version 423,2013-04-09 21:43:00,
2013-04-09 17:53:00,68.0,68.0,29.85,NNW,328,1.6,5.8,100,0.00,,,0.04,WSDL version 423,2013-04-09 21:53:00,
2013-04-09 18:03:00,67.4,67.4,29.85,WNW,287,1.1,4.0,100,0.00,,,0.04,WSDL version 423,2013-04-09 22:03:00,
2013-04-09 18:13:00,66.3,66.3,29.85,WSW,248,1.6,3.6,100,0.00,,,0.04,WSDL version 423,2013-04-09 22:13:00,
2013-04-09 18:23:00,65.2,65.2,29.86,WSW,251,1.2,4.9,100,0.00,,,0.04,WSDL version 423,2013-04-09 22:23:00,
2013-04-09 18:33:00,64.5,64.5,29.86,WSW,257,0.0,4.9,100,0.00,,,0.04,WSDL version 423,2013-04-09 22:33:00,
2013-04-09 18:43:00,63.7,63.7,29.85,West,270,0.0,2.7,100,0.00,,,0.04,WSDL version 423,2013-04-09 22:43:00,
2013-04-09 18:53:00,63.0,63.0,29.86,NW,315,0.0,2.7,100,0.00,,,0.04,WSDL version 423,2013-04-09 22:53:00,
2013-04-09 19:03:00,62.3,62.3,29.85,WSW,248,0.0,2.7,100,0.00,,,0.04,WSDL version 423,2013-04-09 23:03:00,
2013-04-09 19:15:00,61.2,61.2,29.85,WSW,248,0.0,0.0,100,0.00,,,0.04,WSDL version 423,2013-04-09 23:15:00,
2013-04-09 19:25:00,60.4,60.4,29.86,WSW,248,0.0,0.0,100,0.00,,,0.04,WSDL version 423,2013-04-09 23:25:00,
2013-04-09 19:35:00,59.7,59.7,29.87,WSW,248,0.0,0.0,100,0.00,,,0.04,WSDL version 423,2013-04-09 23:35:00,
2013-04-09 19:45:00,59.0,59.0,29.87,WSW,248,0.0,0.0,100,0.00,,,0.04,WSDL version 423,2013-04-09 23:45:00,
2013-04-09 19:55:00,58.2,58.2,29.87,WSW,248,0.0,0.0,100,0.00,,,0.04,WSDL version 423,2013-04-09 23:55:00,
2013-04-09 20:05:00,57.7,57.7,29.87,WSW,248,0.0,0.0,100,0.00,,,0.04,WSDL version 423,2013-04-10 00:05:00,
2013-04-09 20:15:00,57.2,57.2,29.88,WSW,248,0.0,0.0,100,0.00,,,0.04,WSDL version 423,2013-04-10 00:15:00,
2013-04-09 20:25:00,56.8,56.8,29.88,WSW,248,0.0,0.0,100,0.00,,,0.04,WSDL version 423,2013-04-10 00:25:00,
2013-04-09 20:35:00,56.7,56.7,29.89,WSW,248,0.0,0.0,100,0.00,,,0.04,WSDL version 423,2013-04-10 00:35:00,
2013-04-09 20:45:00,56.6,56.6,29.90,WSW,248,0.0,0.0,100,0.00,,,0.04,WSDL version 423,2013-04-10 00:45:00,
2013-04-09 20:55:00,56.0,56.0,29.91,WSW,248,0.0,0.0,100,0.00,,,0.04,WSDL version 423,2013-04-10 00:55:00,
2013-04-09 21:05:00,55.1,55.1,29.92,SW,228,0.0,3.6,100,0.00,,,0.04,WSDL version 423,2013-04-10 01:05:00,
2013-04-09 21:15:00,53.8,53.8,29.93,SW,225,1.1,3.6,100,0.00,,,0.04,WSDL version 423,2013-04-10 01:15:00,
2013-04-09 21:25:00,52.0,52.0,29.93,South,188,1.0,3.6,100,0.00,,,0.04,WSDL version 423,2013-04-10 01:25:00,
2013-04-09 21:35:00,50.7,50.7,29.92,SW,215,2.7,4.0,100,0.00,,,0.04,WSDL version 423,2013-04-10 01:35:00,
2013-04-09 21:45:00,49.9,49.9,29.93,SSW,203,0.0,2.7,100,0.00,,,0.04,WSDL version 423,2013-04-10 01:45:00,
2013-04-09 21:55:00,49.4,49.4,29.93,SSW,203,0.0,0.0,100,0.00,,,0.04,WSDL version 423,2013-04-10 01:55:00,
2013-04-09 22:05:00,48.9,48.9,29.92,SSW,203,0.0,0.0,100,0.00,,,0.04,WSDL version 423,2013-04-10 02:05:00,
2013-04-09 22:15:00,48.7,48.7,29.92,South,180,0.0,3.1,100,0.00,,,0.04,WSDL version 423,2013-04-10 02:15:00,
2013-04-09 22:25:00,48.7,48.7,29.92,South,180,0.0,2.7,100,0.00,,,0.04,WSDL version 423,2013-04-10 02:25:00,
2013-04-09 22:35:00,48.6,48.6,29.93,SW,225,0.0,3.1,100,0.00,,,0.04,WSDL version 423,2013-04-10 02:35:00,
2013-04-09 22:45:00,48.4,48.4,29.92,SSW,203,0.0,3.1,100,0.00,,,0.04,WSDL version 423,2013-04-10 02:45:00,
2013-04-09 22:55:00,48.3,48.3,29.91,SSW,203,0.0,0.0,100,0.00,,,0.04,WSDL version 423,2013-04-10 02:55:00,
2013-04-09 23:05:00,48.1,48.1,29.89,SW,225,0.0,2.7,100,0.00,,,0.04,WSDL version 423,2013-04-10 03:05:00,
2013-04-09 23:15:00,47.9,47.9,29.89,SW,225,0.0,2.7,100,0.00,,,0.04,WSDL version 423,2013-04-10 03:15:00,
2013-04-09 23:25:00,47.6,47.6,29.90,SW,225,0.0,0.0,100,0.00,,,0.04,WSDL version 423,2013-04-10 03:25:00,
2013-04-09 23:35:00,47.5,47.5,29.89,SW,225,0.0,0.0,100,0.00,,,0.04,WSDL version 423,2013-04-10 03:35:00,
2013-04-09 23:45:00,47.4,47.4,29.87,SW,225,0.0,2.7,100,0.00,,,0.04,WSDL version 423,2013-04-10 03:45:00,
2013-04-09 23:55:00,47.1,47.1,29.86,NE,45,0.0,2.7,100,0.00,,,0.04,WSDL version 423,2013-04-10 03:55:00,